Chesapeake, VA

7:42 PM EDT on September 17, 2019 (GMT -0400)
Chesapeake Regional

Weather History for KCPK - August, 2019

Change the Weather History Date:

Saturday, August 24, 2019

  Actual Average (WUND) Record (WUND)
Temperature  
Mean Temperature 72 °F -  
Max Temperature 75 °F - - (-1)
Min Temperature 68 °F - - (-1)
Cooling Degree Days 6    
Growing Degree Days 22 (Base 50)    
Moisture  
Dew Point 65 °F    
Average Humidity 79    
Maximum Humidity 96    
Minimum Humidity 60    
Precipitation  
Precipitation 0.00 in - - ()
Sea Level Pressure  
Sea Level Pressure 30.09 in    
Wind  
Wind Speed 6 mph ()    
Max Wind Speed 15 mph    
Max Gust Speed 22 mph    
Visibility 9.8 miles    
Events Rain    
Averages and records for this station are not official NWS values.
T = Trace of Precipitation, MM = Missing Value Source: Averaged Metar Reports

Daily Weather History Graph

Daily Weather History Graph

Search for Another Location

Airport or City:

Astronomy

Aug. 24, 2019 Rise Set
Actual Time 6:29 AM EDT 7:44 PM EDT
Civil Twilight 6:02 AM EDT 8:11 PM EDT
Nautical Twilight 5:30 AM EDT 8:43 PM EDT
Astronomical Twilight 4:57 AM EDT 9:17 PM EDT
Moon 12:24 AM EDT (8/24) 2:54 PM EDT (8/24)
Length of Visible Light 14h 08m
Length of Day
13h 15m
Last Quarter, 39% of the Moon is Illuminated
Aug 24
Last Quarter
Aug 30
New
Sep 5
First Quarter
Sep 14
Full
Sep 21
Last Quarter

Hourly Weather History & Observations

Time (EDT) Temp. Dew Point Humidity Pressure Visibility Wind Dir Wind Speed Gust Speed Precip Events Conditions
12:15 AM 71.6 °F 70.3 °F 96% 30.03 in 10.0 mi NNE 6.9 mph - N/A   Overcast
12:35 AM 71.2 °F 70.2 °F 96% 30.02 in 10.0 mi NNE 8.1 mph - N/A   Overcast
12:55 AM 70.7 °F 69.6 °F 96% 30.01 in 5.0 mi North 6.9 mph - N/A   Overcast
1:15 AM 70.5 °F 69.3 °F 96% 30.01 in 7.0 mi North 5.8 mph - N/A   Overcast
1:55 AM 70.9 °F 69.8 °F 96% 30.03 in 10.0 mi North 3.5 mph - N/A   Overcast
2:15 AM 71.2 °F 70.2 °F 96% 30.03 in 10.0 mi NE 4.6 mph - N/A   Overcast
2:35 AM 70.9 °F 69.8 °F 96% 30.03 in 7.0 mi North 3.5 mph - N/A Rain Rain
2:55 AM 70.7 °F 69.4 °F 96% 30.03 in 5.0 mi NNE 3.5 mph - N/A Rain Rain
3:35 AM 70.3 °F 69.3 °F 96% 30.03 in 10.0 mi North 3.5 mph - N/A   Overcast
3:55 AM 70.2 °F 68.2 °F 93% 30.04 in 10.0 mi North 4.6 mph - N/A   Overcast
4:15 AM 69.8 °F 67.3 °F 92% 30.04 in 10.0 mi North 4.6 mph - N/A Rain Light Rain
4:35 AM 69.8 °F 66.4 °F 89% 30.05 in 10.0 mi North 5.8 mph - N/A   Overcast
4:55 AM 69.3 °F 64.8 °F 86% 30.05 in 10.0 mi North 4.6 mph - N/A   Mostly Cloudy
5:15 AM 69.1 °F 63.7 °F 83% 30.04 in 10.0 mi NNE 6.9 mph - N/A   Overcast
5:35 AM 68.9 °F 63.7 °F 83% 30.05 in 10.0 mi NNE 4.6 mph - N/A   Overcast
5:55 AM 68.9 °F 64.0 °F 84% 30.05 in 10.0 mi NNE 3.5 mph - N/A   Overcast
6:15 AM 68.9 °F 63.7 °F 83% 30.06 in 10.0 mi North 5.8 mph - N/A   Overcast
6:35 AM 68.9 °F 63.7 °F 83% 30.06 in 10.0 mi North 5.8 mph - N/A   Overcast
6:55 AM 68.9 °F 63.5 °F 83% 30.07 in 10.0 mi North 6.9 mph - N/A   Mostly Cloudy
7:15 AM 69.3 °F 63.5 °F 82% 30.07 in 10.0 mi NNE 5.8 mph - N/A   Mostly Cloudy
7:35 AM 69.8 °F 63.5 °F 80% 30.08 in 10.0 mi NNE 5.8 mph - N/A   Overcast
7:55 AM 70.2 °F 63.5 °F 79% 30.09 in 10.0 mi North 5.8 mph - N/A   Overcast
8:15 AM 70.3 °F 62.6 °F 76% 30.09 in 10.0 mi North 4.6 mph - N/A   Overcast
8:35 AM 70.9 °F 62.4 °F 75% 30.10 in 10.0 mi North 5.8 mph - N/A   Overcast
9:15 AM 71.6 °F 63.7 °F 76% 30.10 in 10.0 mi NNE 4.6 mph - N/A   Overcast
9:35 AM 72.5 °F 64.2 °F 75% 30.11 in 10.0 mi North 5.8 mph - N/A   Mostly Cloudy
9:55 AM 73.4 °F 64.2 °F 73% 30.11 in 10.0 mi NNE 5.8 mph - N/A   Overcast
10:15 AM 73.6 °F 64.2 °F 72% 30.11 in 10.0 mi North 6.9 mph - N/A   Overcast
10:35 AM 74.1 °F 63.9 °F 70% 30.11 in 10.0 mi North 5.8 mph - N/A   Overcast
10:55 AM 73.4 °F 63.1 °F 70% 30.12 in 10.0 mi North 5.8 mph - N/A   Overcast
11:15 AM 73.4 °F 63.1 °F 70% 30.12 in 10.0 mi North 6.9 mph - N/A   Overcast
11:35 AM 73.4 °F 62.6 °F 69% 30.13 in 10.0 mi North 5.8 mph - N/A   Overcast
11:55 AM 74.5 °F 63.0 °F 67% 30.12 in 10.0 mi NNE 8.1 mph - N/A   Overcast
12:15 PM 74.5 °F 63.9 °F 69% 30.12 in 10.0 mi NNE 6.9 mph - N/A   Overcast
12:35 PM 74.8 °F 64.2 °F 69% 30.12 in 10.0 mi NNE 8.1 mph - N/A   Overcast
12:55 PM 74.3 °F 64.4 °F 71% 30.12 in 10.0 mi North 6.9 mph - N/A   Overcast
1:15 PM 75.2 °F 64.8 °F 70% 30.12 in 10.0 mi NNE 10.4 mph - N/A   Overcast
1:35 PM 73.9 °F 64.8 °F 73% 30.12 in 10.0 mi NNE 5.8 mph - N/A   Overcast
1:55 PM 73.6 °F 64.0 °F 72% 30.12 in 10.0 mi NNE 10.4 mph - N/A   Overcast
2:15 PM 73.4 °F 63.9 °F 72% 30.12 in 10.0 mi North 6.9 mph - N/A   Light Drizzle
2:35 PM 73.8 °F 64.2 °F 72% 30.12 in 10.0 mi NNE 5.8 mph - N/A   Overcast
2:55 PM 73.6 °F 63.3 °F 70% 30.12 in 10.0 mi NNE 6.9 mph - N/A   Mostly Cloudy
3:15 PM 74.3 °F 63.3 °F 68% 30.11 in 10.0 mi North 8.1 mph - N/A   Mostly Cloudy
3:35 PM 75.2 °F 63.0 °F 66% 30.11 in 10.0 mi North 9.2 mph - N/A   Mostly Cloudy
3:55 PM 73.8 °F 60.6 °F 63% 30.11 in 10.0 mi North 6.9 mph - N/A   Overcast
4:15 PM 73.2 °F 60.1 °F 63% 30.11 in 10.0 mi North 5.8 mph - N/A   Overcast
4:35 PM 72.7 °F 58.1 °F 60% 30.11 in 10.0 mi North 6.9 mph - N/A   Overcast
4:55 PM 72.1 °F 59.2 °F 64% 30.11 in 10.0 mi North 3.5 mph - N/A   Overcast
5:15 PM 72.3 °F 60.1 °F 65% 30.11 in 10.0 mi North 4.6 mph - N/A   Overcast
5:55 PM 70.7 °F 62.6 °F 75% 30.11 in 10.0 mi North 3.5 mph - N/A Rain Light Rain
6:15 PM 70.3 °F 63.9 °F 80% 30.10 in 10.0 mi North 4.6 mph - N/A Rain Rain
6:35 PM 70.0 °F 64.4 °F 82% 30.10 in 10.0 mi NNE 4.6 mph - N/A   Light Drizzle
6:55 PM 71.1 °F 65.1 °F 81% 30.10 in 10.0 mi NNE 6.9 mph - N/A   Overcast
7:15 PM 71.1 °F 65.1 °F 81% 30.11 in 10.0 mi NE 4.6 mph - N/A   Overcast
7:35 PM 71.4 °F 65.7 °F 82% 30.11 in 10.0 mi NE 4.6 mph - N/A   Overcast
7:55 PM 72.0 °F 64.9 °F 78% 30.11 in 10.0 mi NNE 8.1 mph - N/A   Overcast
8:15 PM 72.0 °F 64.8 °F 78% 30.12 in 10.0 mi NNE 9.2 mph - N/A   Overcast
8:35 PM 72.0 °F 64.4 °F 77% 30.12 in 10.0 mi NNE 8.1 mph - N/A   Overcast
8:55 PM 71.6 °F 64.4 °F 78% 30.12 in 10.0 mi NNE 8.1 mph - N/A   Overcast
9:15 PM 71.8 °F 64.9 °F 79% 30.13 in 10.0 mi NE 11.5 mph - N/A Rain Light Rain
9:35 PM 71.8 °F 66.0 °F 82% 30.13 in 10.0 mi NE 12.7 mph 17.3 mph N/A Rain Light Rain
9:55 PM 70.7 °F 66.7 °F 87% 30.13 in 10.0 mi NE 6.9 mph - N/A   Overcast
10:15 PM 71.4 °F 66.4 °F 84% 30.13 in 10.0 mi NE 9.2 mph - N/A   Overcast
10:35 PM 71.6 °F 66.6 °F 84% 30.13 in 10.0 mi NNE 8.1 mph - N/A   Overcast
10:55 PM 71.6 °F 67.3 °F 86% 30.13 in 10.0 mi NE 10.4 mph 16.1 mph N/A   Overcast
11:35 PM 71.6 °F 66.7 °F 85% 30.13 in 10.0 mi NE 13.8 mph 17.3 mph N/A   Overcast
11:55 PM 71.4 °F 66.6 °F 85% 30.13 in 10.0 mi ENE 15.0 mph 21.9 mph N/A   Overcast